Content
SEND FEEDBACK

Daily
Averages
Monthly
Summary
United States of America

STATEN ISLAND, NEW YORK


Home > North America > United States > New York
Elevation: 152 feet     Latitude: 40 35N     Longitude: 074 09W

WEATHER
 
SELECT A DAY
Number of Records: 189,619;   Date Range: 1/1/95 - 7/27/14
 
SHARE

PRINT THIS DATA

[ ← Previous Day ]
WEATHER ALMANAC - FEBRUARY 21, 2013
[ Next Day → ]
[ °C ]   °F
Weather ElementAverageHighLow
Temperature29.4 °F36 °F (2:51 pm)24.1 °F (1:51 am)
Dewpoint11.2 °F12.9 °F (2:51 pm)9 °F (7:51 am)
Humidity47.4 %58 % (10:51 pm)37 % (11:51 am)
Barometer30.09 in30.29 in (11:51 pm)29.99 in (3:51 am)
Wind Speed16.9 mph27.6 mph (10:51 am)
Wind Gust39.1 mph (10:51 am)
Weather ElementAverage
Visibility10 mi
Wind DirectionWNW (305.7 °)

Weather ElementTotal
Precipitation---
Heating Degree Days35 (Base 65)
Averaged from 23 records on February 21, 2013
WEATHER CONDITIONS BREAKOUT
WIND DIRECTION BREAKOUT
WEATHER BY HOUR - FEBRUARY 21, 2013
[ °C ]   °F
Local TimeTemperatureDewpointHumidityBarometerVisibilityWind DirectionWind SpeedGust SpeedPrecipitationEventsConditions
1:51 AM24.1 °F10.0 °F55 %30.00 in10.0 miWest (280°)10.4 mphScattered Clouds
2:51 AM25.0 °F10.0 °F53 %30.00 in10.0 miWNW (290°)15.0 mph21.9 mphMostly Cloudy
3:51 AM25.0 °F10.0 °F53 %29.99 in10.0 miWest (280°)10.4 mphMostly Cloudy
4:51 AM26.1 °F10.9 °F53 %30.01 in10.0 miWNW (290°)13.8 mphMostly Cloudy
5:51 AM26.1 °F10.0 °F51 %30.02 in10.0 miNW (310°)17.3 mph32.2 mphOvercast
6:51 AM26.6 °F10.4 °F51 %30.03 in10.0 miWNW (300°)17.3 mph23.0 mphOvercast
7:51 AM27.0 °F9.0 °F47 %30.04 in10.0 miNW (310°)13.8 mph20.7 mphMostly Cloudy
8:51 AM28.9 °F10.0 °F45 %30.03 in10.0 miWNW (290°)18.4 mph27.6 mphMostly Cloudy
9:51 AM30.0 °F10.0 °F43 %30.02 in10.0 miWest (280°)19.6 mph31.1 mphScattered Clouds
10:51 AM33.1 °F10.0 °F38 %30.03 in10.0 miWNW (290°)27.6 mph39.1 mphScattered Clouds
11:51 AM35.1 °F10.9 °F37 %30.02 in10.0 miWNW (290°)25.3 mph35.7 mphScattered Clouds
12:51 PM35.1 °F10.9 °F37 %30.00 in10.0 miWNW (300°)19.6 mph34.5 mphScattered Clouds
1:51 PM35.1 °F12.0 °F39 %30.02 in10.0 miWNW (290°)23.0 mph33.4 mphPartly Cloudy
2:51 PM36.0 °F12.9 °F39 %30.03 in10.0 miNW (310°)17.3 mph27.6 mphPartly Cloudy
3:51 PM36.0 °F12.9 °F39 %30.04 in10.0 miWNW (300°)19.6 mph33.4 mphPartly Cloudy
4:51 PM34.0 °F12.0 °F40 %30.09 in10.0 miNW (320°)19.6 mph24.2 mphPartly Cloudy
5:51 PM30.9 °F12.0 °F46 %30.13 in10.0 miNW (320°)16.1 mph24.2 mphPartly Cloudy
6:51 PM28.9 °F12.0 °F49 %30.15 in10.0 miNW (320°)17.3 mph21.9 mphPartly Cloudy
7:51 PM28.0 °F12.0 °F51 %30.23 in10.0 miNW (320°)13.8 mph21.9 mphClear
8:51 PM27.0 °F12.0 °F53 %30.27 in10.0 miNW (320°)16.1 mph23.0 mphClear
9:51 PM26.6 °F12.2 °F55 %30.27 in10.0 miNNW (330°)13.8 mphClear
10:51 PM25.0 °F12.0 °F58 %30.28 in10.0 miNNW (330°)16.1 mphClear
11:51 PM26.1 °F12.9 °F58 %30.29 in10.0 miNorth (360°)8.1 mph18.4 mphClear
Hourly data recorded from KEWR, located miles away from Staten Island, New York







STORIES FROM OUR PARTNERS